User: anonymous
Location: Unspecified
(0.0000°N, 0.0000°E)
Time: 06:37:48
(UTC+02:00)
Language:

Cosmos 1538 Rocket - Orbit

View from above orbital plane
View from above orbital plane
View from above satellite
View from above satellite

Ground track
Ground track

The orbit data is extracted from the following two-line orbital elements,

1 14760U 84019B   14209.50526593  .00000140  00000-0  57562-4 0  3708
2 14760 074.0427 256.2518 0028112 012.4912 089.7383 14.35509436592224
Epoch (UTC): 28 July 2014 12:07:34
Eccentricity: 0.0028112
inclination: 74.0427°
perigee height: 753 km
apogee height: 793 km
right ascension of ascending node: 256.2518°
argument of perigee: 12.4912°
revolutions per day: 14.35509436
mean anomaly at epoch: 89.7383°
orbit number at epoch: 59222

The dashed part of the orbit path shows where the satellite is in the earth's shadow,  

DLR